Regional Weather Roundup
Issued by NWS San Diego, CA

Home | Current Version | Previous Version | Text Only | Print | Product List | Glossary On
Versions: 1 2 3 4 5 6 7 8 9 10 11 12 13 14 15 16 17 18 19 20 21 22 23 24 25 26 27 28 29 30 31 32 33 34 35 36 37 38 39 40 41 42 43 44 45 46 47 48 49 50
000
ASUS46 KSGX 260411
RWRSGX

SAN DIEGO HOURLY WEATHER ROUNDUP
NATIONAL WEATHER SERVICE SAN DIEGO CA
900 PM PDT TUE APR 25 2017

NOTE: "FAIR" INDICATES FEW OR NO CLOUDS BELOW 12,000 FEET WITH NO
SIGNIFICANT WEATHER AND/OR OBSTRUCTIONS TO VISIBILITY.

CAZ042-043-060-061-PZZ750-775-260500-

GREATER SAN DIEGO AREA

CITY           SKY/WX    TMP DP  RH WIND       PRES   REMARKS
SAN DIEGO AP   MOCLDY    64  55  72 NW6       29.94R
NATIONAL CITY    N/A     63  57  80 CALM      29.93R
CHULA VISTA      N/A     61  57  85 W2        29.85R
IMPERIAL BEACH MOCLDY    61  54  77 W7        29.94R
BROWN FIELD    PTCLDY    58  54  86 W5        29.93R
MIRAMAR MCAS   MOCLDY    61  52  72 W6        29.93R
MONTGOMERY FLD MOCLDY    61  53  75 SW6       29.93R

$$

NORTH SAN DIEGO COUNTY

CITY           SKY/WX    TMP DP  RH WIND       PRES   REMARKS
CAMP PENDLETON CLOUDY    59  52  77 CALM      29.92R
OCEANSIDE AP   MOCLDY    61  53  75 CALM      29.91R
OCEANSIDE HBR    N/A     62  55  76 CALM      29.94R
VISTA            N/A     60  52  75 CALM      29.90R
CARLSBAD       MOCLDY    62  53  72 CALM      29.91R
DEL MAR          N/A     60  57  88 CALM      29.94R
LA JOLLA SCRIP   N/A     60  57  88 CALM      29.92R
FALLBROOK        N/A     58  54  85 CALM      29.89R
ESCONDIDO        N/A     62  49  63 CALM      29.94R
SAN MARCOS       N/A     60  51  70 CALM      29.93R
POWAY            N/A     59  49  70 CALM      29.94R

$$

EAST SAN DIEGO COUNTY

CITY           SKY/WX    TMP DP  RH WIND       PRES   REMARKS
RAMONA         MOCLDY    55  48  77 NE3       29.94R
SANTEE LAKES     N/A     61  50  68 CALM      29.92R
LA MESA          N/A     61  53  76 CALM      29.86R
JAMUL            N/A     58  51  78 CALM      29.93R
DESCANSO N       N/A     48  44  88 CALM      29.89R
MT. LAGUNA OBS   N/A     50  30  45 NW6       29.58R
CAMPO            N/A     53  47  79 W7        29.90R

$$

ORANGE COUNTY AND THE LOS ANGELES BASIN

CITY           SKY/WX    TMP DP  RH WIND       PRES   REMARKS
JOHN WAYNE AP  MOCLDY    63  53  70 S9        29.89R
LAGUNA BEACH     N/A    N/A N/A N/A S1        29.86R
LAKE FOREST FR   N/A     61  45  56 W3        29.80R
HUNTINGTON BCH   N/A     63  55  75 CALM      29.89R
LOS ALAMITOS   MOCLDY    65  49  55 S7        29.87R
FULLERTON      MOCLDY    67  51  56 SE9       29.87R
LONG BEACH     MOCLDY    71  34  25 NW14      29.87R
L.A. AP        MOCLDY    71  37  28 N10G22    29.88S
L.A. DOWNTOWN  MOCLDY    72  37  28 NW9       29.86R

$$

THE INLAND EMPIRE

CITY           SKY/WX    TMP DP  RH WIND       PRES   REMARKS
CORONA         CLOUDY    61  43  51 CALM      29.89R
CHINO          CLOUDY    64  46  52 CALM      29.89R
ONTARIO        CLOUDY    65  43  44 CALM      29.89R
SAN BERNARDINO PTCLDY    64  39  39 W5        29.90R
RIVERSIDE AP   CLOUDY    67  44  43 CALM      29.89R
MORENO VALLEY    N/A     61  48  62 CALM      28.03R
MARCH ARB      CLOUDY    59  43  55 SE7       29.91R
HORSETHIEF CYN   N/A     61  35  38 W3        29.91R
PERRIS           N/A     60  49  67 S5        29.90R
HEMET EAST       N/A     59  47  65 CALM      29.95R
FRENCH VALLEY  FAIR      59  43  55 S6        29.93R
TEMECULA         N/A     60  49  65 S7        29.97R

$$

SAN BERNARDINO AND RIVERSIDE COUNTY MOUNTAINS

CITY           SKY/WX    TMP DP  RH WIND       PRES   REMARKS
BIG BEAR AP    MOCLDY    45  28  53 CALM      30.05R

$$

SOUTHERN DESERT INCLUDING THE COACHELLA VALLEY

CITY           SKY/WX    TMP DP  RH WIND       PRES   REMARKS
PALM SPRINGS   MOCLDY    76  44  32 NW20      29.80R
PALM DESERT      N/A     75  46  35 CALM      27.73F
THERMAL        MOCLDY    76  45  33 NW15G23   29.75R
BLYTHE         PTCLDY    80  29  15 SW6       29.75R
IMPERIAL AP    PTCLDY    70  50  49 W12       29.76R
EL CENTRO NAS  MOCLDY    73  46  38 W16       29.79R
YUMA AZ        MOCLDY    75  48  38 W10       29.75R
MEXICALI       CLOUDY    75  43  31 W8        29.76R

$$

UPPER DESERT

CITY           SKY/WX    TMP DP  RH WIND       PRES   REMARKS
VICTORVILLE AP MOCLDY    55  32  41 W16       29.95S
HESPERIA         N/A     56  35  44 CALM      30.06R
PALMDALE       MOCLDY    57  37  47 W20       29.97R
LANCASTER      MOCLDY    58  36  43 W18G26    29.97R
EDWARDS AFB    CLOUDY    59  36  42 W21       29.91R
DAGGETT        MOCLDY    64  33  31 W18       29.90R
29 PALMS N     MOCLDY    66  32  28 W22       29.94R
NEEDLES        PTCLDY    80  11   7 NW8       29.75R

$$

REGIONAL REPORTS

CITY           SKY/WX    TMP DP  RH WIND       PRES   REMARKS
SANTA BARBARA  PTCLDY    60  49  66 W10G23    29.92R
SANDBERG       PTCLDY    48  37  65 N20G28    30.05R
LAS VEGAS NV   PTCLDY    71  12  10 NE14      29.83R
PHOENIX AZ     PTCLDY    80  26  13 W15       29.71R
TIJUANA        PTCLDY    59  52  77 W6        29.94R
ENSENADA NW      N/A     62  32  33 N2        29.90R

$$

OFFSHORE ISLANDS

CITY           SKY/WX    TMP DP  RH WIND       PRES   REMARKS
CATALINA ARPT  PTCLDY    60  45  57 NW15G23   29.93R
SAN NICOLAS IS PTCLDY   N/A N/A N/A NW28G41   29.92R

$$

MARINE AND OFFSHORE BUOY REPORTS

STATION/POSITION SKY/WX   TEMP    WIND        PRES    VSBY  SWELL
                          AIR SEA DIR/SP/G                  HT/PER/DIR
                          (F)     (DEG/KT/KT) (MB)    (MI)  (FT/S/D)
TANNER BANKS               58 57  320/ 25/ 33 1013.3R         8/330/11
S CLEMENTE BASIN           60 62  290/ 16/ 19 1013.1R         8/290/ 9
SAN NICOLAS IS.               56                N/A           5/290/12
SO. S. ROSA ISLA           55 54  310/ 25/ 31 1014.5R         5/290/10
W. S. BARBARA CH           54 52  330/ 17/ 21 1015.9R         5/310/11
M. S. BARBARA CH                  280/ 17/ 21 1014.1
S. MONICA BASIN            60 60  310/ 17/ 21 1012.1R         3/280/11
S PEDRO CHANNEL               59                N/A           2/270/11
CMP PENDLETON NS              63                N/A           3/220/18
OCEANSIDE OFFSHR              64                N/A           3/200/13
TORREY PINES OTR              64                N/A           3/220/13
POINT LOMA SOUTH              60                N/A           3/270/11

$$





USA.gov is the U.S. government's official web portal to all federal, state and local government web resources and services.